Location: C�an Torras
(41.5052°N, 1.9280°E)
Time: 00:18:33
(UTC+00:00)

Cosmos 1092 Rocket - Pass Details

Date: 20 January 2021
Orbit: 954 x 995 km, 83.0° (Epoch: 08 March)

Event Time Altitude Azimuth Distance (km) Brightness Sun altitude
Rises 18:35:17 0° 178° (S) 3,658 7.1 -18.9°
Reaches altitude 10° 18:37:48 10° 176° (S) 2,709 6.4 -19.3°
Maximum altitude 18:43:57 71° 94° (E) 1,020 3.9 -20.5°
Drops below altitude 10° 18:50:06 10° 12° (NNE) 2,702 6.1 -21.6°
Sets 18:52:36 0° 10° (N) 3,648 6.8 -22.1°
